| time (UTC) | temp F | wind direction | speed knots | gust knots | rain 1hr in | rain 24hr in | rain mn in | humidity % | barometer mb |
| 20260510143006 | 60 | 210 | 0.9 | 2.6 | 0.00 | 0.30 | 0.00 | 86 | 1012.2 |
| 20260510141533 | 59 | 293 | 0.0 | 2.6 | 0.00 | 0.30 | 0.00 | 87 | 1012.1 |
| 20260510140059 | 58 | 206 | 0.9 | 2.6 | 0.00 | 0.30 | 0.00 | 89 | 1012.1 |
| 20260510134600 | 56 | 189 | 0.0 | 3.5 | 0.00 | 0.38 | 0.00 | 91 | 1012.2 |
| 20260510133019 | 55 | 344 | 0.0 | 3.5 | 0.00 | 0.38 | 0.00 | 92 | 1012.0 |
| 20260510131545 | 55 | 44 | 0.0 | 2.6 | 0.00 | 0.38 | 0.00 | 93 | 1011.8 |
| 20260510130111 | 54 | 344 | 0.0 | 0.9 | 0.00 | 0.38 | 0.00 | 94 | 1011.7 |
| 20260510124516 | 54 | 156 | 0.0 | 5.2 | 0.00 | 0.45 | 0.00 | 94 | 1011.7 |
| 20260510123047 | 53 | 214 | 0.0 | 3.5 | 0.00 | 0.45 | 0.00 | 95 | 1011.8 |
| 20260510121507 | 53 | 300 | 0.9 | 6.1 | 0.00 | 0.45 | 0.00 | 96 | 1011.7 |
| 20260510120120 | 53 | 87 | 0.9 | 5.2 | 0.00 | 0.45 | 0.00 | 96 | 1011.6 |
| 20260510114525 | 52 | 218 | 0.0 | 5.2 | 0.00 | 0.47 | 0.00 | 97 | 1011.4 |
| 20260510113039 | 52 | 148 | 0.9 | 3.5 | 0.00 | 0.47 | 0.00 | 97 | 1011.2 |
| 20260510111505 | 51 | 171 | 1.7 | 6.1 | 0.00 | 0.47 | 0.00 | 97 | 1011.2 |
| 20260510110011 | 51 | 100 | 0.0 | 3.5 | 0.00 | 0.47 | 0.00 | 97 | 1011.1 |
| 20260510104534 | 51 | 308 | 0.9 | 3.5 | 0.00 | 0.47 | 0.00 | 97 | 1011.2 |
| 20260510103046 | 51 | 231 | 0.9 | 3.5 | 0.00 | 0.47 | 0.00 | 97 | 1010.8 |
| 20260510101518 | 51 | 60 | 0.0 | 3.5 | 0.00 | 0.47 | 0.00 | 97 | 1010.4 |
| 20260510100116 | 51 | 182 | 0.0 | 5.2 | 0.00 | 0.47 | 0.00 | 97 | 1010.3 |
| 20260510094510 | 50 | 112 | 0.9 | 3.5 | 0.00 | 0.48 | 0.00 | 97 | 1010.3 |
| 20260510093035 | 51 | 93 | 0.9 | 3.5 | 0.00 | 0.48 | 0.00 | 97 | 1010.1 |
| 20260510091502 | 50 | 20 | 0.0 | 3.5 | 0.00 | 0.48 | 0.00 | 97 | 1009.7 |
| 20260510090008 | 50 | 98 | 1.7 | 3.5 | 0.00 | 0.48 | 0.00 | 97 | 1009.7 |
| 20260510084542 | 50 | 173 | 0.9 | 5.2 | 0.00 | 0.48 | 0.00 | 96 | 1009.9 |
| 20260510083002 | 50 | 121 | 0.9 | 5.2 | 0.00 | 0.48 | 0.00 | 96 | 1009.9 |
| 20260510081535 | 50 | 129 | 0.9 | 3.5 | 0.00 | 0.48 | 0.00 | 96 | 1009.6 |
| 20260510080019 | 50 | 120 | 0.0 | 2.6 | 0.00 | 0.48 | 0.00 | 96 | 1009.9 |
| 20260510074535 | 50 | 131 | 0.9 | 4.3 | 0.00 | 0.48 | 0.00 | 96 | 1009.6 |
| 20260510073002 | 51 | 104 | 1.7 | 5.2 | 0.00 | 0.48 | 0.00 | 96 | 1009.9 |
| 20260510071533 | 51 | 69 | 0.9 | 4.3 | 0.00 | 0.48 | 0.00 | 96 | 1010.4 |
| 20260510070059 | 51 | 83 | 0.0 | 2.6 | 0.00 | 0.48 | 0.00 | 96 | 1010.5 |
| 20260510064608 | 51 | 277 | 0.0 | 2.6 | 0.00 | 0.48 | 0.00 | 96 | 1010.7 |
| 20260510063022 | 51 | 156 | 0.0 | 5.2 | 0.00 | 0.48 | 0.00 | 96 | 1010.5 |
| 20260510061551 | 51 | 300 | 0.0 | 2.6 | 0.00 | 0.48 | 0.00 | 96 | 1010.4 |
| 20260510060111 | 51 | 267 | 0.9 | 6.1 | 0.00 | 0.48 | 0.00 | 96 | 1010.2 |
| 20260510054516 | 51 | 80 | 0.9 | 7.8 | 0.00 | 0.48 | 0.00 | 96 | 1009.8 |
| 20260510053037 | 51 | 216 | 0.9 | 3.5 | 0.00 | 0.48 | 0.00 | 96 | 1009.9 |
| 20260510051505 | 51 | 204 | 1.7 | 5.2 | 0.00 | 0.48 | 0.00 | 96 | 1009.9 |
| 20260510050034 | 51 | 192 | 0.9 | 5.2 | 0.00 | 0.48 | 0.00 | 96 | 1009.8 |
| 20260510044537 | 51 | 136 | 0.9 | 3.5 | 0.00 | 0.48 | 0.00 | 96 | 1010.0 |
| 20260510043057 | 51 | 123 | 0.0 | 2.6 | 0.00 | 0.48 | 0.00 | 96 | 1010.1 |
| 20260510041516 | 51 | 16 | 1.7 | 4.3 | 0.00 | 0.48 | 0.00 | 96 | 1010.2 |
| 20260510040046 | 51 | 131 | 0.9 | 2.6 | 0.00 | 0.48 | 0.00 | 96 | 1010.0 |
| 20260510034534 | 51 | 65 | 0.0 | 3.5 | 0.00 | 0.48 | 0.48 | 96 | 1010.0 |
| 20260510033008 | 51 | 268 | 0.0 | 2.6 | 0.00 | 0.48 | 0.48 | 95 | 1010.0 |
| 20260510031534 | 51 | 110 | 0.0 | 2.6 | 0.00 | 0.48 | 0.48 | 95 | 1009.8 |
| 20260510030107 | 51 | 56 | 0.0 | 6.1 | 0.00 | 0.48 | 0.48 | 95 | 1009.9 |
| 20260510024600 | 52 | 144 | 0.9 | 2.6 | 0.00 | 0.48 | 0.48 | 95 | 1009.8 |
| 20260510023022 | 52 | 81 | 0.9 | 2.6 | 0.00 | 0.48 | 0.48 | 96 | 1010.0 |
| 20260510021545 | 52 | 146 | 0.0 | 2.6 | 0.00 | 0.48 | 0.48 | 95 | 1010.0 |
| 20260510020115 | 52 | 125 | 0.9 | 7.0 | 0.00 | 0.48 | 0.48 | 95 | 1009.9 |
| 20260510014520 | 52 | 129 | 0.0 | 3.5 | 0.00 | 0.48 | 0.48 | 95 | 1010.0 |
| 20260510013050 | 52 | 309 | 0.0 | 6.1 | 0.00 | 0.48 | 0.48 | 95 | 1009.8 |
| 20260510011521 | 52 | 182 | 0.0 | 5.2 | 0.00 | 0.48 | 0.48 | 95 | 1010.0 |
| 20260510010046 | 52 | 162 | 0.9 | 7.8 | 0.00 | 0.48 | 0.48 | 95 | 1009.9 |
| 20260510004542 | 52 | 144 | 0.0 | 2.6 | 0.00 | 0.48 | 0.48 | 95 | 1009.8 |
| 20260510003012 | 53 | 170 | 0.0 | 3.5 | 0.00 | 0.48 | 0.48 | 95 | 1009.9 |
| 20260510001539 | 53 | 154 | 0.9 | 1.7 | 0.00 | 0.48 | 0.48 | 95 | 1009.5 |
| 20260510000115 | 53 | 150 | 0.0 | 2.6 | 0.00 | 0.48 | 0.48 | 95 | 1009.2 |
| 20260509234526 | 53 | 102 | 0.0 | 3.5 | 0.00 | 0.48 | 0.48 | 95 | 1009.1 |
| 20260509233046 | 53 | 181 | 0.0 | 1.7 | 0.00 | 0.48 | 0.48 | 95 | 1009.1 |
| 20260509231508 | 53 | 140 | 0.0 | 4.3 | 0.00 | 0.48 | 0.48 | 95 | 1008.5 |
| 20260509230008 | 53 | 160 | 0.0 | 4.3 | 0.00 | 0.48 | 0.48 | 95 | 1008.5 |
| 20260509224532 | 54 | 235 | 0.9 | 4.3 | 0.00 | 0.48 | 0.48 | 95 | 1008.8 |
| 20260509223055 | 54 | 194 | 0.9 | 3.5 | 0.00 | 0.48 | 0.48 | 95 | 1008.8 |
| 20260509221518 | 54 | 170 | 0.0 | 4.3 | 0.00 | 0.48 | 0.48 | 96 | 1008.8 |
| 20260509220109 | 54 | 212 | 0.9 | 6.1 | 0.00 | 0.48 | 0.48 | 96 | 1008.9 |
| 20260509214515 | 53 | 100 | 0.0 | 2.6 | 0.00 | 0.48 | 0.48 | 96 | 1009.0 |
| 20260509213040 | 53 | 87 | 0.9 | 7.0 | 0.00 | 0.48 | 0.48 | 96 | 1009.1 |
| 20260509211514 | 53 | 185 | 0.9 | 4.3 | 0.00 | 0.48 | 0.48 | 97 | 1009.2 |
| 20260509210018 | 53 | 71 | 0.9 | 4.3 | 0.00 | 0.48 | 0.48 | 97 | 1009.0 |
| 20260509204544 | 53 | 174 | 0.0 | 3.5 | 0.00 | 0.48 | 0.48 | 97 | 1009.4 |
| 20260509203011 | 52 | 188 | 0.9 | 3.5 | 0.00 | 0.48 | 0.48 | 97 | 1009.5 |
| 20260509201528 | 52 | 121 | 0.9 | 5.2 | 0.01 | 0.48 | 0.48 | 97 | 1009.7 |
| 20260509200104 | 51 | 119 | 0.9 | 3.5 | 0.01 | 0.48 | 0.48 | 96 | 1009.9 |
| 20260509194554 | 51 | 111 | 0.0 | 2.6 | 0.02 | 0.48 | 0.48 | 96 | 1010.2 |
| 20260509193017 | 51 | 101 | 0.9 | 3.5 | 0.03 | 0.48 | 0.48 | 96 | 1010.5 |
| 20260509191550 | 51 | 98 | 0.9 | 3.5 | 0.03 | 0.47 | 0.47 | 96 | 1010.5 |
| 20260509190112 | 50 | 131 | 0.0 | 2.6 | 0.03 | 0.47 | 0.47 | 96 | 1010.6 |
| 20260509184515 | 50 | 233 | 0.0 | 3.5 | 0.03 | 0.46 | 0.46 | 96 | 1010.9 |
| 20260509183032 | 50 | 141 | 0.0 | 2.6 | 0.03 | 0.45 | 0.45 | 96 | 1010.8 |
| 20260509181604 | 49 | 124 | 0.0 | 2.6 | 0.03 | 0.44 | 0.44 | 96 | 1010.8 |
| 20260509180119 | 49 | 141 | 0.9 | 4.3 | 0.04 | 0.44 | 0.44 | 96 | 1011.0 |
| 20260509174518 | 48 | 167 | 0.9 | 2.6 | 0.03 | 0.43 | 0.43 | 96 | 1011.0 |
| 20260509173055 | 48 | 258 | 0.0 | 1.7 | 0.03 | 0.42 | 0.42 | 96 | 1011.1 |
| 20260509171520 | 48 | 308 | 0.0 | 2.6 | 0.02 | 0.41 | 0.41 | 96 | 1011.2 |
| 20260509170055 | 48 | 158 | 1.7 | 7.0 | 0.02 | 0.40 | 0.40 | 96 | 1011.3 |
| 20260509164542 | 48 | 107 | 0.0 | 6.1 | 0.03 | 0.40 | 0.40 | 96 | 1011.3 |
| 20260509163007 | 48 | 143 | 0.9 | 5.2 | 0.03 | 0.39 | 0.39 | 95 | 1011.5 |
| 20260509161539 | 47 | 121 | 0.0 | 3.5 | 0.06 | 0.39 | 0.39 | 96 | 1011.9 |
| 20260509160004 | 47 | 344 | 0.9 | 6.1 | 0.08 | 0.38 | 0.38 | 96 | 1012.2 |
| 20260509154533 | 47 | 137 | 0.9 | 2.6 | 0.10 | 0.37 | 0.37 | 96 | 1012.3 |
| 20260509153051 | 46 | 108 | 0.9 | 4.3 | 0.11 | 0.36 | 0.36 | 96 | 1012.6 |
| 20260509151513 | 46 | 88 | 0.0 | 2.6 | 0.11 | 0.33 | 0.33 | 96 | 1012.7 |
| 20260509150009 | 46 | 143 | 0.0 | 5.2 | 0.11 | 0.30 | 0.30 | 96 | 1013.0 |
| 20260509144533 | 46 | 206 | 0.0 | 2.6 | 0.11 | 0.27 | 0.27 | 95 | 1013.0 |